Location: American Medical Response
(33.3472°N, 96.5511°W)
Time: 15:14:23
(UTC+00:00)

H-2A R/B - Visible Passes

Search period start: 03 July 2022 00:00
Search period end: 13 July 2022 00:00
Orbit: 576 x 652 km, 98.5° (Epoch: 03 July)

Date Brightness Start Highest point End Pass type
(mag) Time Alt. Az. Time Alt. Az. Time Alt. Az.
03 Jul 3.6 03:12:31 10° N 03:16:38 38° WNW 03:20:48 10° SW visible
04 Jul 4.3 03:28:21 10° NNW 03:32:02 26° WNW 03:35:45 10° SW visible
05 Jul 2.8 02:07:43 10° NNE 02:11:47 34° E 02:15:53 10° SSE visible
05 Jul 4.9 03:44:23 10° NNW 03:47:24 18° WNW 03:50:27 10° WSW visible
06 Jul 2.3 02:22:56 10° NNE 02:27:19 52° E 02:31:42 10° S visible
06 Jul 5.2 04:00:55 10° NW 04:02:44 12° WNW 04:04:34 10° W visible
07 Jul 2.1 02:38:19 10° NNE 02:42:49 80° ESE 02:47:18 10° S visible
08 Jul 2.5 02:53:49 10° N 02:58:16 67° WNW 03:02:44 10° SSW visible
09 Jul 3.3 03:09:27 10° N 03:13:43 44° WNW 03:17:59 10° SW visible
10 Jul 4.1 03:25:13 10° N 03:29:07 30° WNW 03:33:01 10° SW visible
11 Jul 3.0 02:04:50 10° NE 02:08:48 30° E 02:12:46 10° SSE visible
11 Jul 4.7 03:41:10 10° NNW 03:44:29 21° WNW 03:47:48 10° WSW visible
12 Jul 2.5 02:20:01 10° NNE 02:24:21 45° E 02:28:39 10° S visible
12 Jul 5.1 03:57:28 10° NW 03:59:50 14° WNW 04:02:10 10° W visible
